sat.trackr.live / text

‹ back to catalog

STARLINK-2485

NORAD 48142 · 2021-027BC

PAYLOAD ACTIVE UNKNOWN

§ Identity

Operator
Country
US
Launch date
2021-04-07
Launch site
AFETR
Launch vehicle
Mass (kg)
RCS (m²)

Purposes: comms

External: N2YO · Heavens-Above · Gunter

§ Orbital elements

Epoch: 2026-09-19T19:11:30.864192Z

Period
94.01 min
Inclination
53.1607°
Eccentricity
0.0001186
Mean motion
15.31701066 rev/d
Perigee alt
469.9 km
Apogee alt
471.5 km
Semi-major
6,848.9 km
B*
-6.5830e-5
RAAN
329.6960°
Arg perigee
79.4282°
Mean anomaly
280.6853°
Rev number
30,242

§ Raw data

STARLINK-24851 48142U 21027BC  26262.79966278 -.00002407  00000+0 -65830-4 0  99932 48142  53.1607 329.6960 0001186  79.4282 280.6853 15.31701066302429

JSON: /api/v1/satellites/48142 · /tle

For live sub-satellite position, see the globe view (requires WebGL).

§ Visibility from observer

Set your observer location to see the next 7 days of passes ≥ 10°. The values pass through the URL so the page stays shareable.

No JS? Fill the form by hand. The geolocation button needs JavaScript.